カタログに戻る

COSMOS 2251 DEB

運用中LEO
NORAD 34813·DEBRIS·🇷🇺 Russia

打ち上げ Jun 16, 1993 から Plesetsk Cosmodrome

Loading…

次のパス (今後24時間)

TLE

最新Source: Space-Track

元期: Sep 13, 2026, 11:28 UTC

1 34813U 93036ABC 26256.47785943  .00001306  00000-0  10710-2 0  9999
2 34813  73.9248  50.8611 0448623  33.4389 329.4203 13.51995646853662

AllMySatでCOSMOS 2251 DEBをリアルタイム追跡

Download on the App Store